Regional Weather Roundup
Issued by NWS

Home | Current Version | Previous Version | Text Only | Print | Product List | Glossary On
Versions: 1 2 3 4 5 6 7 8 9 10 11 12 13 14 15 16 17 18 19 20 21 22 23 24 25 26 27 28 29 30 31 32 33 34 35 36 37 38 39 40 41 42 43 44 45 46 47 48 49 50
000
ASUS43 KMKX 210000
RWRWI

WISCONSIN REGIONAL WEATHER ROUNDUP
NATIONAL WEATHER SERVICE MILWAUKEE/SULLIVAN WI
700 PM CDT MON APR 20 2015

NOTE: "FAIR" INDICATES FEW OR NO CLOUDS BELOW 12,000 FEET WITH NO
SIGNIFICANT WEATHER AND/OR OBSTRUCTIONS TO VISIBILITY.

WIZ001-002-006>008-014>016-023>028-210100-
NORTHWEST WISCONSIN

CITY           SKY/WX    TMP DP  RH WIND       PRES   REMARKS
SUPERIOR ARPT  CLOUDY    37  28  72 NW18G24   29.42R WCI  26
ASHLAND        CLOUDY    38  27  64 W14G25    29.38S WCI  30
6HR MIN TEMP:  38; 6HR MAX TEMP:  43;

HAYWARD        CLOUDY    38  26  62 VRB7      29.41R WCI  33
6HR MIN TEMP:  36; 6HR MAX TEMP:  40; 6HR PCP: TRACE;

SIREN          CLOUDY    38  25  59 W14G23    29.45S WCI  30
CUMBERLAND     CLOUDY    36  27  69 W17G24    29.44S WCI  25
RICE LAKE      CLOUDY    38  27  64 W16G22    29.47S WCI  29
CHETEK         CLOUDY    38  27  64 W13G22    29.46R WCI  30
LADYSMITH      CLOUDY    39  29  68 W14       29.43R WCI  31
EAU CLAIRE     CLOUDY    40  25  55 W18G24    29.48R WCI  31
6HR MIN TEMP:  39; 6HR MAX TEMP:  43;

MENOMONIE      CLOUDY    40  26  57 W16       29.49R WCI  32
NEW RICHMOND   CLOUDY    40  27  59 W14G24    29.48F WCI  32
OSCEOLA        CLOUDY    41  27  58 W12       29.50F
$$

WIZ003>005-009-010-017-018-210100-
NORTH CENTRAL WISCONSIN

CITY           SKY/WX    TMP DP  RH WIND       PRES   REMARKS
MANITOWISH WTR CLOUDY    35  31  87 W15G21    29.34R WCI  25
ARBOR VITAE    CLOUDY    37  31  81 W8G17     29.34R WCI  30
WOODRUFF       CLOUDY    37  31  81 W8G17     29.34R WCI  30
RHINELANDER    CLOUDY    36  29  75 W16G25    29.36R WCI  26
6HR MIN TEMP:  35; 6HR MAX TEMP:  38; 6HR PCP:  0.03;

EAGLE RIVER    FLURRIES  35  30  82 W10       29.32R WCI  27
LAND O LAKES   CLOUDY    36  32  87 W9G16     29.32R WCI  29
PHILLIPS       CLOUDY    37  29  75 W6        29.37R WCI  32
TOMAHAWK       CLOUDY    36  29  77 W7        29.38R WCI  30
MEDFORD        CLOUDY    37  29  73 W10G17    29.40S WCI  29
MERRILL        CLOUDY    38  30  74 W14G21    29.39S WCI  29
$$

WIZ029-030-035-036-043>047-210100-
CENTRAL WISCONSIN

CITY           SKY/WX    TMP DP  RH WIND       PRES   REMARKS
WAUSAU         CLOUDY    38  29  70 W14G24    29.40R WCI  30
6HR MIN TEMP:  37; 6HR MAX TEMP:  41; 6HR PCP:  0.02;

MOSINEE        CLOUDY    37  30  75 W16       29.44R WCI  28
MARSHFIELD     CLOUDY    39  29  67 W13       29.44R WCI  31
6HR MIN TEMP:  38; 6HR MAX TEMP:  40;

STEVENS POINT  CLOUDY    37  28  70 W13G21    29.44S WCI  29
WAUPACA        CLOUDY    42  32  67 W15G22    29.45R
WAUTOMA        NOT AVBL
WISC RAPIDS    CLOUDY    40  27  59 W9        29.47S WCI  34
6HR MIN TEMP:  39; 6HR MAX TEMP:  42; 6HR PCP:  0.01;

CAMP DOUGLAS   NOT AVBL
$$

WIZ011>013-019>022-031-037>040-048>050-210100-
NORTHEAST WISCONSIN

CITY           SKY/WX    TMP DP  RH WIND       PRES   REMARKS
ANTIGO         CLOUDY    35  31  84 W13G20    29.38R WCI  27
SHAWANO        CLOUDY    42  33  69 W8G21     29.41R
OCONTO         CLOUDY    41  36  83 W13G25    29.37R
STURGEON BAY   CLOUDY    41  36  81 W15G21    29.39R
6HR MIN TEMP:  37; 6HR MAX TEMP:  43;

GREEN BAY      CLOUDY    42  33  70 W22G29    29.42R
6HR MIN TEMP:  42; 6HR MAX TEMP:  45; 6HR PCP:  0.01;

MANITOWOC      CLOUDY    43  36  75 W14G22    29.43R
APPLETON       CLOUDY    39  32  75 W17G26    29.45R WCI  30
CLINTONVILLE   CLOUDY    39  32  75 W17G23    29.42R WCI  30
OSHKOSH        CLOUDY    42  31  64 W14G24    29.46R
6HR MIN TEMP:  41; 6HR MAX TEMP:  44; 6HR PCP:  0.02;

$$

WIZ032>034-041-042-053>061-210100-
SOUTHWEST WISCONSIN

CITY           SKY/WX    TMP DP  RH WIND       PRES   REMARKS
LA CROSSE      CLOUDY    44  29  55 W20       29.53R
6HR MIN TEMP:  42; 6HR MAX TEMP:  47;

SPARTA         CLOUDY    41  28  58 W10       29.52R
VIROQUA        CLOUDY    40  31  68 W17G24    29.53R WCI  31
BOSCOBEL       CLOUDY    45  28  51 W17G31    29.57R
6HR MIN TEMP:  43; 6HR MAX TEMP:  47;

PRAIRIE DU CHI CLOUDY    44  29  54 W18G30    29.58R
PLATTEVILLE    CLOUDY    44  32  63 W21G26    29.58R
$$

WIZ056-057-062-063-064-067-068-210100-
SOUTH CENTRAL WISCONSIN

CITY           SKY/WX    TMP DP  RH WIND       PRES   REMARKS
REEDSBURG      CLOUDY    41  30  65 W13       29.51S
BARABOO/DELLS  CLOUDY    40  30  65 W10       29.51R WCI  34
LONE ROCK      NOT AVBL
MINERAL POINT  CLOUDY    43  32  65 W24G30    29.54R
MADISON        CLOUDY    43  29  57 W9G20     29.52R
6HR MIN TEMP:  42; 6HR MAX TEMP:  44; 6HR PCP: TRACE;

MIDDLETON      CLOUDY    44  30  59 W13G23    29.53R
WATERTOWN      CLOUDY    42  32  68 W12G20    29.51R
MONROE         CLOUDY    43  32  65 W26G33    29.55R
JANESVILLE     NOT AVBL
$$

WIZ051-052-058>065-066-070>072-210100-
SOUTHEAST WISCONSIN

CITY           SKY/WX    TMP DP  RH WIND       PRES   REMARKS
MILWAUKEE      CLOUDY    44  30  57 W17G25    29.51R
6HR MIN TEMP:  44; 6HR MAX TEMP:  47; 6HR PCP: TRACE;

WAUKESHA       NOT AVBL
MILWAUKEE/TIMM CLOUDY    43  30  61 W12G24    29.51R
RACINE         CLOUDY    44  32  62 W10G26    29.53R
6HR MIN TEMP:  44; 6HR MAX TEMP:  47; 6HR PCP: TRACE;

BURLINGTON     CLOUDY    42  32  67 W16G25    29.52R
KENOSHA        CLOUDY    44  33  65 W20G33    29.52R
6HR MIN TEMP:  44; 6HR MAX TEMP:  47; 6HR PCP: TRACE;

FOND DU LAC    CLOUDY    42  32  67 W13G23    29.48R
6HR MIN TEMP:  42; 6HR MAX TEMP:  46; 6HR PCP:  0.01;

SHEBOYGAN      CLOUDY    42  33  70 W22G29    29.45R
6HR MIN TEMP:  42; 6HR MAX TEMP:  45; 6HR PCP:  0.01;

WEST BEND      CLOUDY    41  30  65 W17G31    29.48R
JUNEAU         CLOUDY    41  32  70 W13       29.50R
$$

LSZ147-162-210100-
LAKE SUPERIOR

STATION/POSITION TIME  TEMP    WIND        PRES    WAVE
                       AIR SEA DIR/SP/G            HT/PER
                 (UTC) (F)     (DEG/KT/KT) (MB)    (FT/S)
DEVILS ISLAND    2300   36     260/ 18/ 20  994.2R
PORT WING        2300   38     260/ 15/ 21  995.3S
SAXON HARBOR     2340   39     270/  7/ 17  994.9R
$$

LMZ867-665-643>646-210100-
LAKE MICHIGAN

STATION/POSITION TIME  TEMP    WIND        PRES    WAVE
                       AIR SEA DIR/SP/G            HT/PER
                 (UTC) (F)     (DEG/KT/KT) (MB)    (FT/S)
CHAMBERS ISLAND  2300   39     220/  5/  9  994.2R
NORTHPORT PIER   2300   38     280/  6/ 10  993.6R
SISTER BAY       2302   39     270/ 13/ 14   N/A
KEWAUNEE LAKESHO 2300   43     260/ 12/ 21  994.4R
SHEBOYGAN LAKESH 2300   43     280/ 18/ 26  997.4R
PORT WASHINGTON  2300   45     270/ 13/ 24  998.6R
MILWAUKEE LAKESH 2300   44     270/ 18/ 26   N/A
KENOSHA   LAKESH 2300   45     270/ 14/ 24  999.7R
$$

TC  - TEMPERATURE IN CELSIUS
VSB - VISIBILITY IN STATUTE MILES
WCI - WIND CHILL INDEX
HX  - HEAT INDEX




USA.gov is the U.S. government's official web portal to all federal, state and local government web resources and services.